Date,Time,Wetness (Wet Dry or Ice),Wind Speed (m/s),Temperature (C),Humidity (%),Pressure (mb),Radiation (W/m^2)
2018-04-04,04:25:00,DRY,5.10,6.45,3.0,772.00,0.0
2018-04-04,04:30:00,DRY,5.20,6.40,3.7,772.00,0.0
2018-04-04,04:35:00,DRY,4.55,6.50,3.0,772.00,0.0
2018-04-04,04:40:00,DRY,5.63,6.33,4.0,772.00,0.0
2018-04-04,04:45:00,DRY,5.05,6.40,4.0,772.00,0.0
2018-04-04,04:50:00,DRY,3.97,6.30,4.0,772.00,0.0
2018-04-04,04:55:00,DRY,5.70,6.35,3.5,772.00,0.0
2018-04-04,05:00:00,DRY,5.47,6.10,3.3,772.00,0.0
2018-04-04,05:05:00,DRY,5.35,6.10,3.5,772.00,0.0
2018-04-04,05:10:00,DRY,5.83,6.17,3.7,772.00,0.0
2018-04-04,05:15:00,DRY,6.00,6.20,3.5,772.00,0.0
2018-04-04,05:20:00,DRY,5.93,6.50,3.7,772.00,0.0
2018-04-04,05:25:00,DRY,4.35,6.40,3.0,772.00,0.0
2018-04-04,05:30:00,DRY,5.30,6.27,3.0,772.00,0.0
2018-04-04,05:35:00,DRY,6.20,6.35,3.0,772.00,0.0
2018-04-04,05:40:00,DRY,5.87,6.50,3.0,772.00,0.0
2018-04-04,05:45:00,DRY,6.10,6.45,3.0,772.00,0.0
2018-04-04,05:50:00,DRY,5.03,6.33,3.0,772.00,0.0
2018-04-04,05:55:00,DRY,5.05,6.45,3.5,772.00,0.0
2018-04-04,06:00:00,DRY,5.70,6.43,3.0,772.00,0.0
2018-04-04,06:05:00,DRY,5.20,6.35,3.0,772.00,0.0
2018-04-04,06:10:00,DRY,5.13,6.40,2.7,772.00,0.0
2018-04-04,06:15:00,DRY,5.05,6.40,3.0,772.00,0.0
2018-04-04,06:20:00,DRY,4.57,6.43,3.0,772.00,0.0
2018-04-04,06:25:00,DRY,6.45,6.35,3.0,772.00,0.0
2018-04-04,06:30:00,DRY,4.80,6.33,3.0,772.00,0.0
2018-04-04,06:35:00,DRY,4.35,6.45,3.0,772.00,0.0
2018-04-04,06:40:00,DRY,5.47,6.47,3.0,772.00,0.0
2018-04-04,06:45:00,DRY,4.60,6.40,3.0,772.00,0.0
2018-04-04,06:50:00,DRY,4.87,6.43,3.0,772.00,0.5
2018-04-04,06:55:00,DRY,5.05,6.45,3.0,772.00,0.9
2018-04-04,07:00:00,DRY,4.97,6.50,2.3,772.00,5.8
2018-04-04,07:05:00,DRY,5.10,6.50,2.5,772.00,12.8
2018-04-04,07:10:00,DRY,4.47,6.57,2.7,772.00,28.7
2018-04-04,07:15:00,DRY,6.20,6.55,2.5,772.00,56.1
2018-04-04,07:20:00,DRY,5.63,6.63,3.0,772.00,80.2
2018-04-04,07:25:00,DRY,5.85,6.70,3.0,772.00,52.5
2018-04-04,07:30:00,DRY,5.20,6.63,3.0,772.00,64.2
2018-04-04,07:35:00,DRY,5.60,6.75,3.0,772.00,73.5
2018-04-04,07:40:00,DRY,5.27,6.87,3.0,772.00,80.1
2018-04-04,07:45:00,DRY,5.55,6.90,3.0,772.00,84.7
2018-04-04,07:50:00,DRY,5.60,6.90,3.0,772.00,87.3
2018-04-04,07:55:00,DRY,4.30,6.90,3.0,772.00,88.2
2018-04-04,08:00:00,DRY,4.93,6.93,2.7,772.33,86.0
2018-04-04,08:05:00,DRY,3.90,6.95,3.0,772.50,96.2
2018-04-04,08:10:00,DRY,4.63,7.07,3.0,772.33,170.2
2018-04-04,08:15:00,DRY,5.45,7.05,3.0,773.00,191.8
2018-04-04,08:20:00,DRY,4.83,7.20,3.0,773.00,219.2
2018-04-04,08:25:00,DRY,4.95,7.35,3.0,773.00,224.8
2018-04-04,08:30:00,DRY,4.40,7.40,3.0,773.00,275.1
2018-04-04,08:35:00,DRY,4.90,7.50,3.0,773.00,265.7
2018-04-04,08:40:00,DRY,5.77,7.50,3.0,773.00,303.0
2018-04-04,08:45:00,DRY,5.25,7.70,3.0,773.00,379.5
2018-04-04,08:50:00,DRY,5.27,7.83,3.0,773.00,420.6
2018-04-04,08:55:00,DRY,4.65,7.95,2.5,773.00,430.0
2018-04-04,09:00:00,DRY,5.33,8.00,3.0,773.00,457.2
2018-04-04,09:05:00,DRY,4.80,8.15,3.5,773.00,471.2
2018-04-04,09:10:00,DRY,4.33,8.33,3.0,773.00,542.4
2018-04-04,09:15:00,DRY,3.85,8.30,3.5,773.00,540.1
2018-04-04,09:20:00,DRY,4.63,8.40,3.7,773.00,587.1
2018-04-04,09:25:00,DRY,4.00,8.35,5.0,773.00,585.4
2018-04-04,09:30:00,DRY,3.50,8.30,4.3,773.00,606.2
2018-04-04,09:35:00,DRY,4.75,8.55,5.0,773.00,635.8
2018-04-04,09:40:00,DRY,3.83,8.43,5.3,773.00,667.9
2018-04-04,09:45:00,DRY,3.70,8.45,5.0,773.00,685.2
2018-04-04,09:50:00,DRY,4.37,8.57,4.3,773.00,584.9
2018-04-04,09:55:00,DRY,3.45,8.70,6.0,773.00,617.1
2018-04-04,10:00:00,DRY,4.60,8.77,5.0,773.00,659.1
2018-04-04,10:05:00,DRY,3.15,8.65,6.0,773.00,635.0
2018-04-04,10:10:00,DRY,4.80,8.60,5.7,773.00,716.2
2018-04-04,10:15:00,DRY,4.20,8.90,5.5,773.00,794.8
2018-04-04,10:20:00,DRY,3.50,8.87,5.0,773.00,802.3
2018-04-04,10:25:00,DRY,3.25,8.95,5.5,773.00,822.9
2018-04-04,10:30:00,DRY,4.00,9.30,7.0,773.00,788.2
2018-04-04,10:35:00,DRY,3.75,8.90,8.0,773.00,829.1
2018-04-04,10:40:00,DRY,3.07,9.23,9.0,773.00,683.7
2018-04-04,10:45:00,DRY,2.35,8.90,7.0,773.00,763.5
2018-04-04,10:50:00,DRY,2.77,9.07,8.0,773.00,781.2
2018-04-04,10:55:00,DRY,3.50,9.15,8.5,773.00,794.5
2018-04-04,11:00:00,DRY,2.87,9.27,14.0,773.00,799.5
2018-04-04,11:05:00,DRY,3.15,9.10,8.5,773.00,665.6
2018-04-04,11:10:00,DRY,3.10,9.00,11.3,773.00,687.3
2018-04-04,11:15:00,DRY,4.40,9.30,11.0,773.00,763.5
2018-04-04,11:20:00,DRY,3.60,9.53,11.7,773.00,703.5
2018-04-04,11:25:00,DRY,2.90,9.25,8.5,773.00,622.8
2018-04-04,11:30:00,DRY,4.27,9.23,10.0,773.00,721.5
2018-04-04,11:35:00,DRY,3.10,9.10,9.5,773.00,795.7
2018-04-04,11:40:00,DRY,3.73,9.30,10.0,773.00,824.2
2018-04-04,11:45:00,DRY,3.80,9.60,9.5,773.00,939.3
2018-04-04,11:50:00,DRY,3.50,9.60,12.3,773.00,926.8
2018-04-04,11:55:00,DRY,3.90,9.60,10.5,773.00,951.3
2018-04-04,12:00:00,DRY,4.13,9.57,12.0,773.00,929.0
2018-04-04,12:05:00,DRY,4.15,9.65,15.0,773.00,974.5
2018-04-04,12:10:00,DRY,4.63,9.67,15.3,773.00,956.7
2018-04-04,12:15:00,DRY,4.40,10.00,14.5,773.00,911.1
2018-04-04,12:20:00,DRY,4.47,9.70,17.0,773.00,790.0
2018-04-04,12:25:00,DRY,5.05,9.65,22.5,773.00,943.5
2018-04-04,12:30:00,DRY,4.55,9.60,16.5,773.00,993.9
2018-04-04,12:35:00,DRY,3.95,9.95,20.0,773.00,927.0
2018-04-04,12:40:00,DRY,4.10,9.83,21.7,773.00,978.0
2018-04-04,12:45:00,DRY,2.80,9.85,22.0,773.00,994.2
2018-04-04,12:50:00,DRY,3.63,9.97,22.3,773.00,929.8
2018-04-04,12:55:00,DRY,3.90,9.90,13.5,773.00,1009.2
2018-04-04,13:00:00,DRY,3.33,10.07,29.3,773.00,915.5
2018-04-04,13:05:00,DRY,4.00,9.70,23.5,773.00,970.1
2018-04-04,13:10:00,DRY,4.07,9.97,26.7,773.00,1075.3
2018-04-04,13:15:00,DRY,4.05,10.10,25.5,773.00,1028.8
2018-04-04,13:20:00,DRY,2.70,9.77,30.0,773.00,960.3
2018-04-04,13:25:00,DRY,2.50,10.10,20.5,773.00,1071.6
2018-04-04,13:30:00,DRY,3.95,10.25,25.0,773.00,1061.2
2018-04-04,13:35:00,DRY,1.90,10.60,33.0,773.00,1025.3
2018-04-04,13:40:00,DRY,3.17,10.40,27.0,773.00,1038.0
2018-04-04,13:45:00,DRY,3.20,10.05,31.5,773.00,972.7
2018-04-04,13:50:00,DRY,3.90,9.97,32.3,773.00,934.6
2018-04-04,13:55:00,DRY,3.15,10.25,31.0,773.00,1021.8
2018-04-04,14:00:00,DRY,3.80,10.17,30.3,773.00,1018.1
2018-04-04,14:05:00,DRY,3.75,10.40,26.0,773.00,1007.8
2018-04-04,14:10:00,DRY,3.33,10.13,30.0,773.00,971.9
2018-04-04,14:15:00,DRY,4.45,9.90,32.0,773.00,1004.9
2018-04-04,14:20:00,DRY,3.30,10.00,33.7,773.00,1005.2
2018-04-04,14:25:00,DRY,3.95,10.15,36.0,773.00,919.5
2018-04-04,14:30:00,DRY,3.63,10.33,27.0,773.00,969.1
2018-04-04,14:35:00,DRY,3.85,10.10,34.5,773.00,921.4
2018-04-04,14:40:00,DRY,3.17,10.37,33.0,773.00,983.9
2018-04-04,14:45:00,DRY,4.25,10.20,23.0,773.00,968.0
2018-04-04,14:50:00,DRY,4.10,10.43,31.0,773.00,928.3
2018-04-04,14:55:00,DRY,3.50,10.45,28.5,773.00,956.5
2018-04-04,15:00:00,DRY,4.43,10.10,32.0,773.00,899.4
2018-04-04,15:05:00,DRY,3.50,9.85,26.0,773.00,923.9
2018-04-04,15:10:00,DRY,4.50,10.33,22.7,773.00,908.7
2018-04-04,15:15:00,DRY,4.40,10.20,25.0,773.00,821.8
2018-04-04,15:20:00,DRY,4.37,10.17,30.0,773.00,914.3
2018-04-04,15:25:00,DRY,4.00,10.00,26.0,773.00,872.5
2018-04-04,15:30:00,DRY,3.20,10.20,26.7,772.67,849.7
2018-04-04,15:35:00,DRY,4.60,10.40,26.5,772.50,860.0
2018-04-04,15:40:00,DRY,3.90,10.30,24.3,773.00,810.2
2018-04-04,15:45:00,DRY,2.85,10.05,23.5,773.00,797.5
2018-04-04,15:50:00,DRY,3.83,9.93,22.0,772.67,802.6
2018-04-04,15:55:00,DRY,2.95,9.85,27.5,773.00,778.0
2018-04-04,16:00:00,DRY,3.50,9.67,26.3,772.67,781.9
2018-04-04,16:05:00,DRY,2.65,9.65,27.5,772.50,735.8
2018-04-04,16:10:00,DRY,3.37,9.97,25.7,772.33,700.2
2018-04-04,16:15:00,DRY,2.65,9.90,23.0,773.00,730.5
2018-04-04,16:20:00,DRY,2.73,9.77,27.3,773.00,709.7
2018-04-04,16:25:00,DRY,3.10,9.90,21.0,773.00,720.5
2018-04-04,16:30:00,DRY,3.37,9.70,25.3,772.33,690.5
2018-04-04,16:35:00,DRY,2.95,9.60,23.5,773.00,592.6
2018-04-04,16:40:00,DRY,3.17,9.80,25.0,773.00,622.9
2018-04-04,16:45:00,DRY,2.95,9.50,23.0,772.00,631.0
2018-04-04,16:50:00,DRY,2.87,10.07,21.7,772.33,610.0
2018-04-04,16:55:00,DRY,2.55,9.75,19.5,772.00,591.8
2018-04-04,17:00:00,DRY,2.93,10.00,16.0,772.33,571.2
2018-04-04,17:05:00,DRY,2.80,10.10,16.0,772.00,551.3
2018-04-04,17:10:00,DRY,3.07,10.13,15.0,772.67,530.3
2018-04-04,17:15:00,DRY,3.70,10.10,16.0,772.50,511.9
2018-04-04,17:20:00,DRY,2.93,9.87,14.0,772.67,479.1
2018-04-04,17:25:00,DRY,3.45,10.00,11.0,772.00,468.8
2018-04-04,17:30:00,DRY,4.07,9.73,8.3,772.00,454.1
2018-04-04,17:35:00,DRY,3.50,9.65,10.0,772.00,433.7
2018-04-04,17:40:00,DRY,3.33,9.90,12.0,772.00,411.2
2018-04-04,17:45:00,DRY,3.50,9.80,7.0,772.00,349.9
2018-04-04,17:50:00,DRY,3.47,9.83,7.3,772.00,315.4
2018-04-04,17:55:00,DRY,3.50,9.60,7.0,772.00,281.6
2018-04-04,18:00:00,DRY,3.43,9.60,6.3,772.00,326.6
2018-04-04,18:05:00,DRY,2.95,9.60,8.0,772.00,291.9
2018-04-04,18:10:00,DRY,2.73,9.47,6.3,772.00,291.4
2018-04-04,18:15:00,DRY,4.20,9.20,7.0,772.00,263.7
2018-04-04,18:20:00,DRY,2.97,9.27,7.0,772.00,244.1
2018-04-04,18:25:00,DRY,3.25,9.25,5.0,772.00,221.1
2018-04-04,18:30:00,DRY,3.87,9.20,3.7,772.00,197.0
2018-04-04,18:35:00,DRY,3.60,9.15,4.0,772.00,151.6
2018-04-04,18:40:00,DRY,2.60,8.93,4.0,772.00,17.3
2018-04-04,18:45:00,DRY,2.65,8.85,4.0,772.00,12.2
2018-04-04,18:50:00,DRY,3.13,8.73,4.3,772.00,12.6
2018-04-04,18:55:00,DRY,3.30,8.70,4.0,772.00,12.1
2018-04-04,19:00:00,DRY,2.63,8.60,3.0,772.00,11.1
2018-04-04,19:05:00,DRY,3.70,8.50,4.0,772.00,10.0
2018-04-04,19:10:00,DRY,3.43,8.37,4.3,772.00,12.0
2018-04-04,19:15:00,DRY,3.05,8.25,4.0,773.00,9.8
2018-04-04,19:20:00,DRY,2.60,8.13,4.0,772.33,7.6
2018-04-04,19:25:00,DRY,2.90,8.00,3.0,772.50,3.9
2018-04-04,19:30:00,DRY,3.23,7.93,3.3,772.67,2.7
2018-04-04,19:35:00,DRY,2.80,7.90,3.0,773.00,1.0
2018-04-04,19:40:00,DRY,2.77,7.77,3.3,773.00,0.0
2018-04-04,19:45:00,DRY,3.45,7.75,3.0,773.00,0.0
2018-04-04,19:50:00,DRY,3.83,7.73,3.0,773.00,0.0
2018-04-04,19:55:00,DRY,3.60,7.60,3.0,773.00,0.0
2018-04-04,20:00:00,DRY,3.47,7.57,2.7,773.00,0.0
2018-04-04,20:05:00,DRY,3.55,7.60,2.5,773.00,0.0
2018-04-04,20:10:00,DRY,3.23,7.70,3.0,773.00,0.0
2018-04-04,20:15:00,DRY,3.30,7.65,2.0,773.00,0.0
2018-04-04,20:20:00,DRY,2.93,7.60,2.0,773.00,0.0
2018-04-04,20:25:00,DRY,3.15,7.60,2.5,773.00,0.0
2018-04-04,20:30:00,DRY,3.00,7.57,3.0,773.00,0.0
2018-04-04,20:35:00,DRY,2.50,7.45,2.5,773.00,0.0
2018-04-04,20:40:00,DRY,3.07,7.37,3.0,773.00,0.0
2018-04-04,20:45:00,DRY,3.00,7.30,2.0,773.00,0.0
2018-04-04,20:50:00,DRY,3.33,7.33,2.0,773.00,0.0
2018-04-04,20:55:00,DRY,3.75,7.30,2.0,773.00,0.0
2018-04-04,21:00:00,DRY,3.03,7.33,2.0,773.00,0.0
2018-04-04,21:05:00,DRY,3.10,7.25,2.0,773.00,0.0
2018-04-04,21:10:00,DRY,2.83,7.20,2.7,773.00,0.0
2018-04-04,21:15:00,DRY,3.35,7.30,2.5,773.00,0.0
2018-04-04,21:20:00,DRY,2.80,7.33,2.0,773.00,0.0
2018-04-04,21:25:00,DRY,3.15,7.25,2.5,773.00,0.0
2018-04-04,21:30:00,DRY,3.00,7.20,2.7,773.00,0.0
2018-04-04,21:35:00,DRY,2.95,7.25,3.0,773.00,0.0
2018-04-04,21:40:00,DRY,2.83,7.27,2.3,773.00,0.0
2018-04-04,21:45:00,DRY,2.95,7.30,3.0,773.50,0.0
2018-04-04,21:50:00,DRY,2.80,7.17,2.7,773.00,0.0
2018-04-04,21:55:00,DRY,2.85,7.10,3.0,773.00,0.0
2018-04-04,22:00:00,DRY,3.17,7.17,2.3,773.67,0.0
2018-04-04,22:05:00,DRY,3.05,7.00,3.0,774.00,0.0
2018-04-04,22:10:00,DRY,3.07,7.07,2.7,774.00,0.0
2018-04-04,22:15:00,DRY,3.30,7.10,2.5,774.00,0.0
2018-04-04,22:20:00,DRY,3.10,7.27,2.0,774.00,0.0
2018-04-04,22:25:00,DRY,2.80,7.15,3.0,774.00,0.0
2018-04-04,22:30:00,DRY,3.30,7.23,3.0,774.00,0.0
2018-04-04,22:35:00,DRY,3.15,7.20,3.0,774.00,0.0
2018-04-04,22:40:00,DRY,3.13,7.10,3.0,774.00,0.0
2018-04-04,22:45:00,DRY,2.70,7.05,3.0,774.00,0.0
2018-04-04,22:50:00,DRY,2.67,7.20,3.0,774.00,0.0
2018-04-04,22:55:00,DRY,2.60,7.20,3.0,774.00,0.0
2018-04-04,23:00:00,DRY,2.63,7.23,3.0,774.00,0.0
2018-04-04,23:05:00,DRY,2.85,7.20,3.0,774.00,0.0
2018-04-04,23:10:00,DRY,2.10,7.17,3.0,773.67,0.0
2018-04-04,23:15:00,DRY,2.05,7.10,3.0,773.00,0.0
2018-04-04,23:20:00,DRY,2.37,7.27,2.7,773.33,0.0
2018-04-04,23:25:00,DRY,2.15,7.25,3.0,773.50,0.0
2018-04-04,23:30:00,DRY,2.13,7.27,2.3,773.00,0.0
2018-04-04,23:35:00,DRY,1.70,7.25,3.0,773.00,0.0
2018-04-04,23:40:00,DRY,2.20,7.23,2.3,773.00,0.0
2018-04-04,23:45:00,DRY,2.75,7.15,2.5,773.00,0.0
2018-04-04,23:50:00,DRY,1.93,7.00,2.7,773.00,0.0
2018-04-04,23:55:00,DRY,2.15,7.15,2.5,773.00,0.0
2018-04-05,00:00:00,DRY,1.87,7.20,2.3,773.00,0.0
2018-04-05,00:05:00,DRY,2.00,7.20,2.5,773.00,0.0
2018-04-05,00:10:00,DRY,1.50,7.13,2.3,773.00,0.0
2018-04-05,00:15:00,DRY,1.45,7.55,2.0,773.00,0.0
2018-04-05,00:20:00,DRY,1.57,7.57,2.0,773.00,0.0
2018-04-05,00:25:00,DRY,2.15,7.10,3.0,773.00,0.0
2018-04-05,00:30:00,DRY,2.07,6.97,3.0,773.00,0.8
2018-04-05,00:35:00,DRY,1.40,6.95,3.0,773.00,0.0
2018-04-05,00:40:00,DRY,1.63,6.90,3.0,773.00,0.0
2018-04-05,00:45:00,DRY,1.70,6.80,3.0,773.00,0.0
2018-04-05,00:50:00,DRY,1.83,6.77,2.7,773.00,0.0
2018-04-05,00:55:00,DRY,1.60,6.65,3.0,773.00,0.0
2018-04-05,01:00:00,DRY,1.57,6.80,3.0,773.00,0.0
2018-04-05,01:05:00,DRY,1.45,7.00,2.0,773.00,0.0
2018-04-05,01:10:00,DRY,1.70,7.17,2.3,773.00,0.0
2018-04-05,01:15:00,DRY,2.10,6.95,3.0,773.00,0.0
2018-04-05,01:20:00,DRY,1.63,6.87,2.7,773.00,0.0
2018-04-05,01:25:00,DRY,1.60,6.80,3.0,773.00,0.0
2018-04-05,01:30:00,DRY,1.80,6.63,3.0,773.00,0.0
2018-04-05,01:35:00,DRY,1.10,6.75,2.0,773.00,0.0
2018-04-05,01:40:00,DRY,1.90,6.90,3.0,773.00,0.0
2018-04-05,01:45:00,DRY,2.25,6.70,3.0,773.00,0.0
2018-04-05,01:50:00,DRY,2.03,6.43,3.0,773.00,0.0
2018-04-05,01:55:00,DRY,1.85,6.35,3.0,773.00,0.0
2018-04-05,02:00:00,DRY,1.97,6.33,3.0,773.00,0.0
2018-04-05,02:05:00,DRY,2.55,6.40,3.0,773.00,0.0
2018-04-05,02:10:00,DRY,1.57,6.60,3.0,773.00,0.0
2018-04-05,02:15:00,DRY,1.95,6.70,3.0,773.00,0.0
2018-04-05,02:20:00,DRY,2.03,6.73,3.0,773.00,0.0
2018-04-05,02:25:00,DRY,2.55,6.80,3.0,772.50,0.0
2018-04-05,02:30:00,DRY,2.50,7.00,2.7,772.33,0.0
2018-04-05,02:35:00,DRY,2.25,6.95,3.0,772.00,0.0
2018-04-05,02:40:00,DRY,2.40,6.40,3.0,772.00,0.0
2018-04-05,02:45:00,DRY,2.10,6.60,3.0,772.00,0.0
2018-04-05,02:50:00,DRY,2.43,6.37,3.0,772.00,0.0
2018-04-05,02:55:00,DRY,2.80,6.20,3.0,772.00,0.0
2018-04-05,03:00:00,DRY,2.33,6.33,2.7,772.00,0.0
2018-04-05,03:05:00,DRY,2.55,6.05,3.0,772.00,0.0
2018-04-05,03:10:00,DRY,2.43,6.17,3.0,772.00,0.0
2018-04-05,03:15:00,DRY,2.35,6.15,3.0,772.00,0.0
2018-04-05,03:20:00,DRY,2.50,6.33,3.0,772.00,0.0
2018-04-05,03:25:00,DRY,3.40,6.25,3.5,772.00,0.0
2018-04-05,03:30:00,DRY,3.57,5.97,3.7,772.00,0.0
2018-04-05,03:35:00,DRY,3.60,6.20,3.0,772.00,0.0
2018-04-05,03:40:00,DRY,3.43,6.17,3.0,772.00,0.0
2018-04-05,03:45:00,DRY,3.90,6.40,3.0,772.00,0.0
2018-04-05,03:50:00,DRY,3.47,6.60,3.0,772.00,0.0
2018-04-05,03:55:00,DRY,3.30,6.55,2.0,772.00,0.0
2018-04-05,04:00:00,DRY,3.03,6.63,2.3,772.00,0.0
2018-04-05,04:05:00,DRY,2.85,6.75,2.5,772.00,0.0
2018-04-05,04:10:00,DRY,3.03,6.67,2.7,772.00,0.0
2018-04-05,04:15:00,DRY,2.50,6.70,3.0,772.00,0.0
2018-04-05,04:20:00,DRY,3.47,6.43,3.0,772.00,0.0
2018-04-05,04:25:00,DRY,3.80,6.45,3.0,772.00,0.0
2018-04-05,04:30:00,DRY,2.83,6.37,3.0,772.00,0.0
2018-04-05,04:35:00,DRY,3.50,6.10,3.0,772.00,0.0
2018-04-05,04:40:00,DRY,2.87,6.47,3.0,772.00,0.0
2018-04-05,04:45:00,DRY,3.40,6.10,3.0,772.00,0.0
2018-04-05,04:50:00,DRY,3.43,6.23,2.7,772.00,0.0
2018-04-05,04:55:00,DRY,3.00,6.40,2.5,772.00,0.0
2018-04-05,05:00:00,DRY,3.10,6.17,3.0,772.00,0.0
2018-04-05,05:05:00,DRY,3.00,6.25,3.0,772.00,0.0
2018-04-05,05:10:00,DRY,3.37,6.30,3.0,772.00,0.0
2018-04-05,05:15:00,DRY,2.90,6.55,2.5,772.00,0.0
2018-04-05,05:20:00,DRY,3.00,6.67,2.3,772.00,0.0
2018-04-05,05:25:00,DRY,3.15,6.35,2.5,772.00,0.0
2018-04-05,05:30:00,DRY,3.17,6.33,3.0,772.00,0.0
2018-04-05,05:35:00,DRY,3.40,6.40,3.0,772.00,0.0
2018-04-05,05:40:00,DRY,3.33,6.33,2.7,772.00,0.0
2018-04-05,05:45:00,DRY,2.85,6.25,3.0,772.00,0.0
2018-04-05,05:50:00,DRY,3.47,6.27,3.0,772.00,0.0
2018-04-05,05:55:00,DRY,3.45,6.35,2.0,772.00,0.0
2018-04-05,06:00:00,DRY,3.20,6.37,3.0,772.00,0.0
2018-04-05,06:05:00,DRY,4.00,6.25,3.0,772.00,0.0
2018-04-05,06:10:00,DRY,3.50,6.43,2.3,772.00,0.0
2018-04-05,06:15:00,DRY,4.10,6.05,3.0,772.00,0.0
2018-04-05,06:20:00,DRY,4.13,6.03,3.0,772.00,0.0
2018-04-05,06:25:00,DRY,4.80,6.00,3.0,772.00,0.0
2018-04-05,06:30:00,DRY,3.70,5.87,3.0,772.00,0.0
2018-04-05,06:35:00,DRY,4.35,5.95,3.0,772.00,0.0
2018-04-05,06:40:00,DRY,4.93,6.17,3.0,772.00,0.0
2018-04-05,06:45:00,DRY,4.55,6.10,3.0,772.00,0.0
2018-04-05,06:50:00,DRY,4.17,5.90,3.0,772.00,0.0
2018-04-05,06:55:00,DRY,4.05,5.75,3.0,772.00,3.0
2018-04-05,07:00:00,DRY,3.53,5.70,3.3,772.00,9.6
2018-04-05,07:05:00,DRY,4.55,5.70,3.0,772.00,21.9
2018-04-05,07:10:00,DRY,4.37,5.80,3.0,772.00,37.6
2018-04-05,07:15:00,DRY,4.60,5.85,3.5,772.00,59.0
2018-04-05,07:20:00,DRY,4.57,6.10,3.7,772.00,82.3
2018-04-05,07:25:00,DRY,3.80,6.20,4.0,772.00,42.1
2018-04-05,07:30:00,DRY,4.13,6.30,3.3,772.00,16.5
2018-04-05,07:35:00,DRY,4.25,6.35,3.0,772.00,18.1
2018-04-05,07:40:00,DRY,5.33,6.50,3.0,772.00,19.2
2018-04-05,07:45:00,DRY,5.75,6.75,3.0,772.00,20.8
2018-04-05,07:50:00,DRY,5.13,6.87,3.0,772.00,22.3
2018-04-05,07:55:00,DRY,4.30,6.90,3.0,772.00,24.1
2018-04-05,08:00:00,DRY,4.77,7.00,3.0,772.00,24.7
2018-04-05,08:05:00,DRY,5.05,7.20,3.5,772.00,118.5
2018-04-05,08:10:00,DRY,3.93,7.43,3.3,772.00,294.1
2018-04-05,08:15:00,DRY,3.70,7.70,4.5,772.00,315.9
2018-04-05,08:20:00,DRY,3.93,7.77,3.7,772.00,338.2
2018-04-05,08:25:00,DRY,3.65,7.85,4.5,772.00,359.3
2018-04-05,08:30:00,DRY,3.87,7.90,4.3,772.00,378.8
2018-04-05,08:35:00,DRY,4.30,7.95,3.5,772.00,401.1
2018-04-05,08:40:00,DRY,4.13,7.93,4.0,772.00,420.2
2018-04-05,08:45:00,DRY,3.70,7.90,5.0,772.00,440.0
2018-04-05,08:50:00,DRY,5.07,7.87,4.7,772.00,459.4
2018-04-05,08:55:00,DRY,4.60,7.85,4.5,772.00,477.4
2018-04-05,09:00:00,DRY,4.20,7.93,5.0,772.00,495.6
2018-04-05,09:05:00,DRY,3.75,7.75,4.0,772.00,510.7
2018-04-05,09:10:00,DRY,4.00,8.03,4.3,772.00,528.1
2018-04-05,09:15:00,DRY,3.50,8.20,4.0,772.00,547.4
2018-04-05,09:20:00,DRY,4.13,8.10,4.3,772.00,564.3
2018-04-05,09:25:00,DRY,3.00,8.15,4.5,772.00,580.0
2018-04-05,09:30:00,DRY,2.97,8.30,4.0,772.00,596.9
2018-04-05,09:35:00,DRY,2.85,8.20,3.5,772.00,615.1
2018-04-05,09:40:00,DRY,3.07,8.27,4.7,772.00,632.2
2018-04-05,09:45:00,DRY,2.85,8.20,5.0,772.00,647.8
2018-04-05,09:50:00,DRY,2.97,8.57,4.0,772.00,662.3
2018-04-05,09:55:00,DRY,3.15,9.15,4.5,772.00,676.7
2018-04-05,10:00:00,DRY,2.20,9.57,4.0,772.00,691.7
2018-04-05,10:05:00,DRY,2.50,9.85,5.0,772.00,707.8
2018-04-05,10:10:00,DRY,1.77,9.83,5.3,772.00,722.6
2018-04-05,10:15:00,DRY,2.15,10.30,5.0,772.00,733.9
2018-04-05,10:20:00,DRY,2.13,10.17,6.3,772.00,748.1
2018-04-05,10:25:00,DRY,2.20,10.25,6.0,772.50,762.0
2018-04-05,10:30:00,DRY,2.77,10.33,7.7,772.67,775.5
2018-04-05,10:35:00,DRY,2.35,10.35,9.0,772.00,786.2
2018-04-05,10:40:00,DRY,2.00,10.80,8.3,772.00,801.5
2018-04-05,10:45:00,DRY,2.45,10.55,7.5,772.00,811.6
2018-04-05,10:50:00,DRY,2.57,10.83,9.7,772.67,827.1
2018-04-05,10:55:00,DRY,2.55,11.00,10.0,772.50,835.5
2018-04-05,11:00:00,DRY,2.63,11.07,10.7,772.33,848.6
2018-04-05,11:05:00,DRY,2.20,10.75,12.5,772.00,860.0
2018-04-05,11:10:00,DRY,2.70,11.10,16.0,772.00,869.1
2018-04-05,11:15:00,DRY,3.15,10.90,15.0,772.50,879.5
2018-04-05,11:20:00,DRY,3.23,10.97,15.7,772.33,891.4
2018-04-05,11:25:00,DRY,2.80,12.05,14.0,772.50,899.0
2018-04-05,11:30:00,DRY,2.90,12.07,16.0,772.33,910.1
2018-04-05,11:35:00,DRY,2.95,11.15,16.5,772.50,917.9
2018-04-05,11:40:00,DRY,3.33,11.37,17.0,772.33,926.6
2018-04-05,11:45:00,DRY,3.40,11.05,22.0,772.50,937.9
2018-04-05,11:50:00,DRY,3.00,11.20,19.0,773.00,945.1
2018-04-05,11:55:00,DRY,2.85,11.55,16.5,772.50,953.6
2018-04-05,12:00:00,DRY,3.87,11.57,19.0,772.67,960.9
2018-04-05,12:05:00,DRY,3.10,10.70,15.5,773.00,970.8
2018-04-05,12:10:00,DRY,3.33,11.47,15.7,772.33,978.2
2018-04-05,12:15:00,DRY,3.35,11.35,15.0,772.00,982.5
2018-04-05,12:20:00,DRY,2.20,10.57,14.0,772.00,987.1
2018-04-05,12:25:00,DRY,3.45,11.20,15.5,772.00,993.4
2018-04-05,12:30:00,DRY,2.95,11.45,17.5,772.00,996.8
2018-04-05,12:35:00,DRY,3.05,11.25,22.5,772.00,1001.3
2018-04-05,12:40:00,DRY,2.63,10.93,22.3,772.00,1004.0
2018-04-05,12:45:00,DRY,3.65,11.45,23.0,772.00,1007.8
2018-04-05,12:50:00,DRY,2.97,11.23,21.7,772.00,1011.9
2018-04-05,12:55:00,DRY,3.15,11.70,21.5,772.00,1013.2
2018-04-05,13:00:00,DRY,3.63,11.73,23.3,772.00,1014.5
2018-04-05,13:05:00,DRY,3.60,11.25,23.5,772.00,1014.7
2018-04-05,13:10:00,DRY,3.30,11.50,23.3,772.00,1018.5
2018-04-05,13:15:00,DRY,4.15,12.50,23.0,772.00,1018.6
2018-04-05,13:20:00,DRY,4.17,11.53,24.7,772.00,1017.5
2018-04-05,13:25:00,DRY,3.60,11.10,25.0,772.00,1017.3
2018-04-05,13:30:00,DRY,3.55,11.65,24.5,772.00,1021.5
2018-04-05,13:35:00,DRY,3.80,11.80,20.0,772.00,1016.2
2018-04-05,13:40:00,DRY,3.73,11.10,21.7,772.00,1012.8
2018-04-05,13:45:00,DRY,3.85,11.20,22.5,772.00,1011.4
2018-04-05,13:50:00,DRY,4.70,11.30,21.0,772.00,1010.9
2018-04-05,13:55:00,DRY,3.60,11.15,23.0,772.00,1006.7
2018-04-05,14:00:00,DRY,3.10,11.30,23.3,772.00,1003.3
2018-04-05,14:05:00,DRY,4.20,11.35,23.0,772.00,998.3
2018-04-05,14:10:00,DRY,4.13,11.10,24.0,772.00,993.1
2018-04-05,14:15:00,DRY,4.05,11.60,25.5,772.00,989.0
2018-04-05,14:20:00,DRY,3.40,11.23,26.0,772.00,983.2
2018-04-05,14:25:00,DRY,5.10,11.40,27.0,772.00,976.9
2018-04-05,14:30:00,DRY,4.27,11.53,28.3,772.00,971.6
2018-04-05,14:35:00,DRY,4.90,11.10,29.5,772.00,962.1
2018-04-05,14:40:00,DRY,3.60,10.77,28.0,772.00,956.1
2018-04-05,14:45:00,DRY,3.65,11.00,25.5,772.00,948.2
2018-04-05,14:50:00,DRY,4.47,10.50,25.7,772.00,938.9
2018-04-05,14:55:00,DRY,5.20,10.80,25.0,772.00,929.6
2018-04-05,15:00:00,DRY,5.07,11.10,24.7,772.00,918.9
2018-04-05,15:05:00,DRY,4.65,10.85,25.0,772.00,909.2
2018-04-05,15:10:00,DRY,4.60,10.73,26.3,772.00,898.9
2018-04-05,15:15:00,DRY,5.00,10.35,28.0,772.00,888.7
2018-04-05,15:20:00,DRY,4.20,10.90,27.3,772.00,877.3
2018-04-05,15:25:00,DRY,3.55,10.75,27.0,772.00,863.0
2018-04-05,15:30:00,DRY,3.43,11.00,27.0,772.00,851.0
2018-04-05,15:35:00,DRY,3.45,10.70,28.0,772.00,838.8
2018-04-05,15:40:00,DRY,3.13,11.10,26.7,772.00,825.7
2018-04-05,15:45:00,DRY,3.75,11.00,26.5,772.00,810.9
2018-04-05,15:50:00,DRY,3.80,10.77,27.7,772.00,798.0
2018-04-05,15:55:00,DRY,3.60,10.50,27.5,772.00,783.0
2018-04-05,16:00:00,DRY,4.33,10.50,28.0,772.00,767.3
2018-04-05,16:05:00,DRY,4.15,10.60,28.0,772.00,750.5
2018-04-05,16:10:00,DRY,4.90,10.90,27.3,772.00,736.4
2018-04-05,16:15:00,DRY,3.25,10.60,27.5,772.00,720.0
2018-04-05,16:20:00,DRY,4.30,10.77,26.7,772.00,703.9
2018-04-05,16:25:00,DRY,3.90,10.90,26.5,772.00,687.7
2018-04-05,16:30:00,DRY,3.77,10.90,27.3,772.00,669.1
2018-04-05,16:35:00,DRY,2.35,10.90,28.0,772.00,652.6
2018-04-05,16:40:00,DRY,3.00,10.77,27.0,772.00,635.0
2018-04-05,16:45:00,DRY,2.05,11.15,26.5,772.00,617.0
2018-04-05,16:50:00,DRY,3.57,11.27,26.7,771.67,597.7
2018-04-05,16:55:00,DRY,4.50,11.20,26.5,772.00,578.7
2018-04-05,17:00:00,DRY,4.43,10.57,27.3,771.67,559.1
2018-04-05,17:05:00,DRY,2.85,10.55,27.5,772.00,539.6
2018-04-05,17:10:00,DRY,3.90,10.60,27.3,772.00,521.5
2018-04-05,17:15:00,DRY,3.20,10.10,29.5,772.00,500.5
2018-04-05,17:20:00,DRY,4.30,10.33,28.3,771.67,481.8
2018-04-05,17:25:00,DRY,2.25,10.40,28.0,771.50,461.9
2018-04-05,17:30:00,DRY,3.97,10.47,28.3,771.33,440.9
2018-04-05,17:35:00,DRY,3.70,10.20,28.0,772.00,419.4
2018-04-05,17:40:00,DRY,3.27,10.20,27.7,771.67,399.7
2018-04-05,17:45:00,DRY,4.00,9.90,27.5,771.50,379.0
2018-04-05,17:50:00,DRY,5.13,9.87,27.3,771.67,357.5
2018-04-05,17:55:00,DRY,3.45,9.65,28.0,771.50,337.1
2018-04-05,18:00:00,DRY,3.03,9.80,28.0,771.67,317.8
2018-04-05,18:05:00,DRY,3.45,9.50,28.0,772.00,293.8
2018-04-05,18:10:00,DRY,3.47,9.57,28.0,772.00,272.3
2018-04-05,18:15:00,DRY,3.85,9.80,27.5,772.00,250.5
2018-04-05,18:20:00,DRY,2.87,9.47,28.0,772.00,230.7
2018-04-05,18:25:00,DRY,4.05,9.40,28.5,771.50,209.7
2018-04-05,18:30:00,DRY,4.20,9.17,28.7,771.67,188.1
2018-04-05,18:35:00,DRY,3.65,9.15,29.0,772.00,151.2
2018-04-05,18:40:00,DRY,3.83,8.97,29.3,771.67,15.8
2018-04-05,18:45:00,DRY,4.40,8.60,30.0,772.00,13.0
2018-04-05,18:50:00,DRY,4.80,8.63,30.0,771.67,12.1
2018-04-05,18:55:00,DRY,4.75,8.55,30.0,772.00,12.5
2018-04-05,19:00:00,DRY,3.07,8.27,30.3,771.67,13.8
2018-04-05,19:05:00,DRY,2.50,8.10,30.5,772.00,13.4
2018-04-05,19:10:00,DRY,2.13,7.93,31.0,772.00,11.2
2018-04-05,19:15:00,DRY,2.35,7.80,31.0,772.00,9.8
2018-04-05,19:20:00,DRY,2.37,7.77,31.0,771.67,8.1
2018-04-05,19:25:00,DRY,2.15,7.75,31.5,772.00,4.8